Regional Weather Roundup
Issued by NWS Portland, ME

Home | Current Version | Previous Version | Text Only | Print | Product List | Glossary On
Versions: 1 2 3 4 5 6 7 8 9 10 11 12 13 14 15 16 17 18 19 20 21 22 23 24 25 26 27 28 29 30 31 32 33 34 35 36 37 38 39 40 41 42 43 44 45 46 47 48 49 50
000
ASUS41 KGYX 260305
RWRGYX
WEATHER ROUNDUP FOR MAINE AND NEW HAMPSHIRE
NATIONAL WEATHER SERVICE GRAY ME
1100 PM EDT SAT OCT 25 2014

MEZ002-005-006-010-012-015-018-020-021-024-026-027-029-260400-
MAINE

CITY           SKY/WX    TMP DP  RH WIND       PRES   REMARKS
PORTLAND       LGT RAIN  54  45  71 SW6       29.48F
SANFORD        CLOUDY    50  45  81 SW3       29.51F
BAR HARBOR     MOCLDY    45  43  93 CALM      29.49F
WISCASSET      CLOUDY    48  46  93 CALM      29.48F
ROCKLAND       MOCLDY    54  48  82 S6        29.46F
FRYEBURG       CLOUDY    54  43  66 W3        29.47F
LEWISTONAUBURN CLOUDY    48  43  81 SE3       29.46F
AUGUSTA        CLOUDY    48  42  80 S5        29.46F
WATERVILLE     CLOUDY    48  39  71 SW6       29.43F
BANGOR         CLOUDY    48  44  86 CALM      29.47F
GREENVILLE       N/A     44  37  76 SE5       29.42F
MILLINOCKET    CLOUDY    42  40  92 NE3       29.48F
HOULTON        CLOUDY    42  41  96 S6        29.49F
PRESQUE ISLE   CLOUDY    43  39  87 S5        29.48F
FRENCHVILLE    CLOUDY    39  38  96 E6        29.46F
CARIBOU        CLOUDY    42  40  92 CALM      29.47F
$$

NHZ002-005-008-009-011-012-014-260400-
NEW HAMPSHIRE

CITY           SKY/WX    TMP DP  RH WIND       PRES   REMARKS
PORTSMOUTH     CLOUDY    55  45  69 MISG      29.49F
ROCHESTER      LGT RAIN  54  45  71 CALM      29.50F
NASHUA         MOCLDY    54  45  71 VRB3      29.52F
MANCHESTER     CLOUDY    54  43  66 S7        29.49F
CONCORD        MOCLDY    50  44  80 S5        29.49F
LACONIA        CLOUDY    54  45  71 S10       29.46F
PLYMOUTH       CLOUDY    49  49 100 CALM      29.47F
BERLIN         LGT RAIN  47  45  93 SE5       29.46F
WHITEFIELD     CLOUDY    48  46  93 E3        29.46F
JAFFREY        LGT RAIN  50  44  80 S9        29.53S
LEBANON        PTCLDY    50  45  83 S12       29.48S
MT WASHINGTON  SNOW      32  32 100 W38G48      N/A  VSB 0   WCI  16
$$

VTZ005-007-008-260400-
VERMONT

CITY           SKY/WX    TMP DP  RH WIND       PRES   REMARKS
ST JOHNSBURY     N/A     48  47  96 MISG      29.45F
MONTPELIER     MOCLDY    48  45  89 SW8       29.50S
BURLINGTON     CLOUDY    52  47  83 S3        29.47F
$$

MAZ007-012-024-CTZ003-RIZ002-NYZ038-NYZ072-260400-
SOUTHERN NEW ENGLAND AND NY

CITY           SKY/WX    TMP DP  RH WIND       PRES   REMARKS
BOSTON         CLOUDY    56  45  66 SW10      29.52F
WORCESTER      CLOUDY    52  43  71 SW14      29.52F
NANTUCKET      MOCLDY    59  53  80 SW12      29.59F
PROVIDENCE     CLEAR     54  48  80 S7        29.56F
HARTFORD       CLOUDY    57  44  62 SW5       29.53F
ALBANY         PTCLDY    53  47  79 W8        29.56S
NEW YORK CITY  PTCLDY    63  44  50 SW17G28   29.58F
$$

ANZ081-ANZ082-ANZ150-NHZ014-MEZ023>029-260400-
COASTAL MARINE OBSERVATIONS

STATION/POSITION TIME  TEMP    WIND        PRES    WAVE
                       AIR SEA DIR/SP/G            HT/PER
                 (UTC) (F)     (DEG/KT/KT) (MB)    (FT/S)
MOUNT DESERT ROC 0300                       998.5
MATINICUS ROCK   0200          170/ 17/ 18  998.3F
PORTLAND WX BUOY 0250   55 54  230/ 10/ 14  998.0F   2/ 9
WELLS            0200   56 52  270/  7/ 11  998.5F
ISLE OF SHOALS   0200   56     230/ 11/ 12  999.0F
JEFFREYS LEDGE   0221      55                N/A     2/ 8
CASHES LEDGE BUO 0250   56 54  210/ 12/ 12  998.2F   2/ 9
$$

.............KEY..............
   WCI - WIND CHILL
   TC  - TEMPERATURE IN CELSIUS
   VSB - VISIBILITY IN MILES
   HX  - HEAT INDEX
   FAIR- INDICATES FEW OR NO CLOUDS BELOW 12,000 FT, WITH NO
         SIGNIFICANT WEATHER AND/OR OBSTRUCTIONS TO VISIBILITY.





USA.gov is the U.S. government's official web portal to all federal, state and local government web resources and services.